[[{"header":{"parameterUnit":"m.s-1","parameterCategory":1,"la1":30.2991,"la2":30.254,"lo1":-89.0895,"lo2":-89.0444,"dy":0.0017,"dx":0.0017,"nx":28,"ny":28,"refTime":"2024-05-08T09:00:00:Z","depth":0,"parameterNumber":2,"parameterNumberName":"U-component_of_WINDS"},"data":[0,0,0,0,0,0,0,0,0,0,0,0,0,0,0,0,0,0,0,0,0,0,0,0,0,0,0,0,0,0,0,0,0,0,0,0,0,0,0,0,0,0,0,0,0,0,0,0,0,0,0,0,0,0,0,0,0,0,-1.3597,-1.3598,0,-1.3653,-1.3654,-1.3654,-1.3666,-1.3665,-1.3665,-1.3665,-1.3723,-1.3725,-1.3727,0,0,0,0,0,0,0,0,0,0,0,0,0,-1.3502,-1.3504,-1.3597,-1.3598,-1.3599,-1.3653,-1.3654,-1.3655,-1.3666,-1.3665,-1.3665,-1.3664,-1.3722,-1.3725,-1.3727,0,0,0,0,0,0,0,0,0,0,0,0,0,-1.3549,-1.3504,-1.3597,-1.3611,-1.3612,-1.3653,-1.3654,-1.3655,-1.3666,-1.3665,-1.3665,-1.3664,-1.3721,-1.3724,-1.3727,-1.3758,0,0,-1.3736,-1.3737,0,0,0,0,0,0,0,0,-1.3546,-1.3553,-1.3608,-1.361,-1.3612,-1.3652,-1.3642,-1.369,-1.3666,-1.3646,-1.3665,-1.3664,-1.37,-1.3704,-1.3716,-1.3761,-1.3763,-1.3736,-1.3738,-1.3739,-1.374,0,0,0,0,0,0,0,-1.3543,-1.355,-1.3619,-1.3609,-1.3611,-1.3615,-1.3621,-1.3651,-1.3676,-1.3647,-1.3648,-1.3655,-1.3701,-1.3714,-1.3718,-1.3764,-1.3736,-1.3739,-1.3741,-1.3742,-1.3838,-1.3839,0,0,0,0,0,0,-1.3537,-1.3547,-1.3618,-1.3621,-1.3577,-1.3617,-1.3624,-1.364,-1.3675,-1.368,-1.3655,-1.3655,-1.3709,-1.3714,-1.372,-1.3759,-1.3739,-1.3742,-1.3744,-1.3838,-1.3839,-1.3839,0,0,0,0,0,0,-1.3535,-1.3543,-1.3615,-1.3585,-1.3594,-1.3619,-1.3637,-1.3641,-1.3654,-1.3681,-1.3686,-1.3664,-1.3709,-1.3716,-1.3749,-1.3761,-1.3743,-1.3746,-1.3837,-1.3838,-1.3839,-1.3838,0,0,0,0,0,0,-1.3532,-1.3543,-1.3554,-1.3585,-1.3596,-1.3643,-1.3638,-1.3643,-1.3659,-1.3659,-1.369,-1.3695,-1.3709,-1.3744,-1.3752,-1.3765,-1.3748,-1.3836,-1.3837,-1.3839,-1.3837,-1.3839,-1.3841,0,0,0,0,0,-1.3529,-1.3552,-1.3555,-1.3563,-1.361,-1.3643,-1.365,-1.3665,-1.366,-1.3672,-1.369,-1.3694,-1.3759,-1.3748,-1.3756,-1.3771,-1.3835,-1.3837,-1.3838,-1.3836,-1.3838,-1.384,0,0,0,0,0,0,-1.3522,-1.3556,-1.356,-1.3593,-1.3615,-1.3645,-1.3661,-1.3667,-1.3691,-1.369,-1.3708,-1.3715,-1.3747,-1.3762,-1.3749,-1.3803,-1.3797,-1.38,-1.3792,-1.3795,-1.3796,-1.3792,-1.3751,0,0,0,0,0,-1.3524,-1.3548,-1.3576,-1.3603,-1.3614,-1.3635,-1.365,-1.366,-1.3684,-1.3694,-1.3714,-1.3737,-1.3763,-1.378,-1.3805,-1.3839,-1.3847,-1.3853,-1.3855,-1.3857,-1.386,-1.388,-1.3883,-1.3845,-1.3845,-1.3845,0,0,-1.3529,-1.3551,-1.3564,-1.3602,-1.362,-1.3645,-1.3643,-1.3669,-1.3688,-1.3698,-1.373,-1.3746,-1.3773,-1.3807,-1.3823,-1.3821,-1.3872,-1.3859,-1.386,-1.3862,-1.3882,-1.3885,-1.3889,-1.3847,-1.3846,-1.3846,0,0,-1.3551,-1.3569,-1.3594,-1.3612,-1.364,-1.3655,-1.3661,-1.369,-1.3701,-1.3734,-1.3742,-1.3765,-1.3808,-1.3828,-1.3844,-1.3874,-1.3879,-1.3882,-1.3891,-1.3911,-1.3914,-1.3916,-1.3928,-1.3931,-1.3884,-1.3884,-1.3884,0,-1.3554,-1.359,-1.3606,-1.3631,-1.3648,-1.3658,-1.3683,-1.3701,-1.3736,-1.3747,-1.3744,-1.38,-1.3819,-1.3858,-1.3866,-1.3878,-1.3886,-1.3878,-1.3912,-1.3915,-1.3918,-1.3929,-1.3933,-1.3885,-1.3885,-1.3885,-1.3885,0,-1.3593,-1.3618,-1.3635,-1.3668,-1.3687,-1.3712,-1.3732,-1.3749,-1.3757,-1.3772,-1.3806,-1.3829,-1.386,-1.387,-1.3878,-1.391,-1.3908,-1.3908,-1.3902,-1.3921,-1.3932,-1.3936,-1.3885,-1.3885,-1.3885,-1.3885,0,0,-1.3612,-1.3653,-1.3659,-1.3675,-1.3707,-1.3727,-1.3753,-1.3783,-1.3797,-1.3821,-1.3844,-1.3882,-1.3882,-1.39,-1.3911,-1.3928,-1.3951,-1.3926,-1.3927,-1.393,-1.3988,-1.3988,-1.3993,-1.3954,-1.3955,-1.3956,-1.3986,0,-1.3637,-1.3684,-1.3699,-1.3738,-1.3762,-1.3772,-1.3795,-1.3818,-1.3833,-1.3856,-1.3873,-1.3899,-1.3897,-1.3908,-1.3926,-1.3944,-1.3963,-1.3942,-1.3976,-1.3977,-1.3969,-1.3998,-1.3998,-1.4026,-1.399,-1.3991,-1.3992,0,-1.3674,-1.3698,-1.3739,-1.3769,-1.378,-1.38,-1.3829,-1.3851,-1.3877,-1.3887,-1.3907,-1.3916,-1.3945,-1.3937,-1.3977,-1.3963,-1.3978,-1.3989,-1.3991,-1.3995,-1.3986,-1.4003,-1.4035,-1.4039,-1.3998,-1.3998,-1.3997,0,-1.3684,-1.3727,-1.3757,-1.377,-1.3806,-1.382,-1.3835,-1.3861,-1.3878,-1.3903,-1.3915,-1.3943,-1.3959,-1.3981,-1.3998,-1.3991,-1.4037,-1.4031,-1.4046,-1.4046,-1.4055,-1.4055,-1.409,-1.4065,-1.4065,-1.4065,-1.4064,0,-1.3711,-1.3736,-1.3762,-1.3781,-1.381,-1.3827,-1.3855,-1.3871,-1.3894,-1.3917,-1.3928,-1.3949,-1.397,-1.3995,-1.4008,-1.404,-1.4047,-1.4056,-1.4059,-1.4055,-1.4054,-1.4065,-1.4064,-1.4066,-1.4065,-1.4065,-1.4065,0,-1.3727,-1.3746,-1.378,-1.381,-1.3819,-1.3838,-1.3865,-1.3884,-1.39,-1.3928,-1.3936,-1.3961,-1.399,-1.4009,-1.4047,-1.4056,-1.409,-1.4093,-1.4081,-1.4083,-1.4098,-1.4096,-1.4142,-1.4149,-1.4118,-1.4119,-1.4119,0,-1.3744,-1.3763,-1.3796,-1.3811,-1.3827,-1.3852,-1.387,-1.3888,-1.3906,-1.3937,-1.3953,-1.3983,-1.4007,-1.4054,-1.4075,-1.4104,-1.4108,-1.4122,-1.4112,-1.4108,-1.4109,-1.4107,-1.411,-1.4123,-1.4124,-1.4124,-1.4124,0,-1.3771,-1.3779,-1.3804,-1.3832,-1.3852,-1.3876,-1.3899,-1.3911,-1.3933,-1.3953,-1.3983,-1.4002,-1.404,-1.407,-1.4101,-1.4118,-1.4125,-1.4127,-1.4132,-1.4128,-1.4121,-1.4125,-1.4086,-1.4126,-1.4126,-1.4125,-1.4125,-1.4125,-1.3788,-1.3806,-1.3832,-1.3859,-1.3879,-1.39,-1.392,-1.3938,-1.3963,-1.3995,-1.4004,-1.4036,-1.4062,-1.4104,-1.4122,-1.4147,-1.4145,-1.4153,-1.4155,-1.4156,-1.4157,-1.4116,-1.4152,-1.4152,-1.4152,-1.4152,-1.4152,0,-1.3817,-1.3834,-1.3859,-1.3891,-1.3912,-1.3917,-1.3943,-1.3961,-1.3988,-1.4012,-1.4036,-1.4071,-1.41,-1.4124,-1.4154,-1.417,-1.4174,-1.4177,-1.4176,-1.418,-1.4156,-1.4149,-1.4173,-1.4173,-1.4173,-1.4173,-1.4173,-1.4173,-1.3834,-1.3865,-1.3877,-1.3918,-1.3935,-1.3965,-1.398,-1.4,-1.4019,-1.4057,-1.4081,-1.4097,-1.4121,-1.4153,-1.418,-1.4186,-1.4197,-1.42,-1.4207,-1.4184,-1.4182,-1.4179,-1.4173,-1.4202,-1.4202,-1.4229,-1.4229,-1.423]},{"header":{"parameterUnit":"m.s-1","parameterCategory":1,"la1":30.2991,"la2":30.254,"lo1":-89.0895,"lo2":-89.0444,"dy":0.0017,"dx":0.0017,"nx":28,"ny":28,"refTime":"2024-05-08T09:00:00:Z","depth":0,"parameterNumber":3,"parameterNumberName":"V-component_of_WINDS"},"data":[0,0,0,0,0,0,0,0,0,0,0,0,0,0,0,0,0,0,0,0,0,0,0,0,0,0,0,0,0,0,0,0,0,0,0,0,0,0,0,0,0,0,0,0,0,0,0,0,0,0,0,0,0,0,0,0,0,0,5.9113,5.9114,0,5.9179,5.918,5.9181,5.9128,5.9126,5.9124,5.9122,5.9184,5.9188,5.9191,0,0,0,0,0,0,0,0,0,0,0,0,0,5.8935,5.8939,5.9113,5.9114,5.9115,5.9179,5.918,5.9181,5.9129,5.9126,5.9123,5.9121,5.9183,5.9187,5.9192,0,0,0,0,0,0,0,0,0,0,0,0,0,5.9008,5.894,5.9113,5.9096,5.9096,5.9179,5.918,5.9181,5.9129,5.9126,5.9122,5.9119,5.9181,5.9187,5.9192,5.9293,0,0,5.9209,5.9212,0,0,0,0,0,0,0,0,5.9004,5.9014,5.9098,5.9098,5.9097,5.9142,5.914,5.9218,5.913,5.9116,5.9122,5.9118,5.9172,5.9178,5.9198,5.9296,5.9299,5.921,5.9213,5.9216,5.9217,0,0,0,0,0,0,0,5.8999,5.9011,5.9139,5.9099,5.9099,5.9084,5.909,5.9155,5.9162,5.9117,5.9114,5.9122,5.9171,5.9193,5.9199,5.93,5.921,5.9215,5.9218,5.922,5.9483,5.9486,0,0,0,0,0,0,5.8996,5.9007,5.9137,5.9141,5.9041,5.909,5.9097,5.9131,5.9161,5.9163,5.9125,5.912,5.9185,5.9193,5.9201,5.932,5.9216,5.9221,5.9224,5.9479,5.9483,5.9487,0,0,0,0,0,0,5.8992,5.9008,5.9134,5.9073,5.9088,5.9096,5.9135,5.9134,5.9155,5.9167,5.9168,5.9146,5.9183,5.9193,5.9271,5.9322,5.9223,5.9228,5.9475,5.948,5.9485,5.956,0,0,0,0,0,0,5.8988,5.9007,5.9047,5.9075,5.9092,5.9205,5.9138,5.9138,5.9166,5.9159,5.9187,5.9188,5.9181,5.9263,5.9276,5.9328,5.9233,5.947,5.9477,5.9484,5.9553,5.9568,5.958,0,0,0,0,0,5.8981,5.9065,5.9049,5.9065,5.9142,5.9208,5.9217,5.9208,5.917,5.9209,5.9217,5.9187,5.9314,5.9271,5.9286,5.934,5.9467,5.9475,5.9483,5.9547,5.9565,5.958,0,0,0,0,0,0,5.9041,5.9068,5.9051,5.9146,5.9176,5.9199,5.9248,5.9227,5.9266,5.9258,5.9244,5.9251,5.9332,5.9344,5.9295,5.9438,5.9384,5.9396,5.9428,5.9445,5.9458,5.9452,5.9237,0,0,0,0,0,5.9066,5.9119,5.9139,5.922,5.9236,5.924,5.9268,5.9259,5.9288,5.9299,5.9312,5.934,5.9385,5.9416,5.9459,5.9555,5.9559,5.9599,5.9612,5.9623,5.9633,5.9683,5.9701,5.9514,5.9514,5.9514,0,0,5.9116,5.9137,5.9171,5.9233,5.9254,5.9307,5.925,5.9309,5.9348,5.9307,5.9381,5.9392,5.9422,5.9509,5.9548,5.9521,5.9686,5.9634,5.9642,5.9646,5.9693,5.9711,5.9727,5.952,5.9519,5.9518,0,0,5.9235,5.9257,5.9327,5.935,5.9384,5.9386,5.9403,5.943,5.9436,5.9511,5.9481,5.9526,5.9606,5.9628,5.9649,5.9777,5.9751,5.9791,5.986,5.9909,5.9924,5.9937,5.998,5.9996,5.9801,5.9801,5.9801,0,5.9293,5.9374,5.9365,5.9427,5.9454,5.9422,5.9491,5.9513,5.9559,5.9577,5.9547,5.9646,5.9663,5.9755,5.9786,5.9805,5.9822,5.9787,5.9923,5.9936,5.9947,5.9989,6.0006,5.9806,5.9805,5.9805,5.9804,0,5.9442,5.9499,5.9551,5.9598,5.9631,5.9696,5.9695,5.9729,5.9717,5.9722,5.9797,5.9818,5.9864,5.9885,5.9873,5.9974,5.9956,5.9925,5.987,5.997,6.0008,6.0024,5.9812,5.9811,5.9809,5.9808,0,0,5.96,5.9641,5.966,5.9681,5.9716,5.9758,5.9821,5.9868,5.9897,5.9929,5.998,6.0048,6.0019,6.0044,6.0034,6.0078,6.0175,6.0041,6.0041,6.0063,6.0286,6.0308,6.0327,6.0159,6.0162,6.0165,6.0283,0,5.9719,5.9831,5.9825,5.9928,5.9979,5.995,6.0004,6.003,6.0036,6.0079,6.0084,6.0133,6.0092,6.0106,6.0148,6.0155,6.022,6.0146,6.0204,6.0206,6.0196,6.0347,6.0371,6.0482,6.0298,6.0301,6.0303,0,5.9873,5.9912,6.0022,6.0049,6.007,6.0119,6.0161,6.0203,6.0231,6.0232,6.026,6.0244,6.0305,6.025,6.0333,6.0283,6.0307,6.0314,6.0318,6.0321,6.0259,6.0353,6.0517,6.0533,6.0327,6.0325,6.0323,0,5.9975,6.0055,6.0131,6.0149,6.0183,6.0218,6.0233,6.0259,6.0287,6.0323,6.0341,6.0383,6.0406,6.0438,6.0432,6.0393,6.0516,6.0461,6.0517,6.0517,6.0543,6.0541,6.0711,6.0561,6.0561,6.0561,6.056,0,6.0108,6.0175,6.0177,6.0223,6.0297,6.0289,6.0362,6.0373,6.0396,6.0442,6.0419,6.0462,6.0453,6.0496,6.0492,6.056,6.0571,6.0572,6.057,6.0573,6.0573,6.0587,6.0578,6.0565,6.0564,6.0563,6.0562,0,6.0233,6.0237,6.0317,6.0343,6.0351,6.0405,6.0425,6.0468,6.0472,6.0531,6.0544,6.0551,6.06,6.0598,6.0653,6.065,6.0734,6.0724,6.0725,6.0722,6.0778,6.0772,6.0961,6.0985,6.0821,6.0823,6.0824,0,6.0317,6.0369,6.04,6.0431,6.0449,6.0498,6.0527,6.052,6.0551,6.0588,6.0625,6.0673,6.071,6.079,6.0798,6.084,6.0829,6.0892,6.0835,6.0836,6.0828,6.0824,6.0828,6.0903,6.0905,6.0906,6.0908,0,6.0465,6.0464,6.0508,6.0553,6.0589,6.0623,6.0655,6.068,6.0677,6.0712,6.0763,6.0793,6.085,6.0896,6.0936,6.0949,6.0928,6.0926,6.0941,6.0944,6.0942,6.0942,6.0754,6.0921,6.092,6.0919,6.0918,6.0918,6.0571,6.0615,6.0644,6.0693,6.0717,6.0747,6.0788,6.0798,6.0841,6.0888,6.0881,6.0938,6.0964,6.1016,6.1033,6.1075,6.1052,6.1074,6.108,6.1085,6.109,6.0937,6.1083,6.1082,6.1082,6.1082,6.1081,0,6.0716,6.0733,6.0779,6.0825,6.0863,6.0842,6.0875,6.0908,6.0958,6.0985,6.1023,6.1081,6.1126,6.1138,6.1181,6.1212,6.1203,6.1224,6.122,6.1223,6.1109,6.1091,6.123,6.123,6.123,6.123,6.123,6.123,6.0796,6.0869,6.0872,6.0955,6.0971,6.1028,6.1049,6.1076,6.1097,6.1163,6.1201,6.121,6.123,6.1274,6.1314,6.1316,6.1332,6.1356,6.1354,6.1247,6.1232,6.1217,6.12,6.136,6.136,6.1465,6.1466,6.1466]}]]